Lid_Strength_Index
9 12 14 13 11 11 12 13 14 12 9 11 13 12 12 11 11 12 12 10 8 7 6 6 6 5 5 2 2 2 2 2 2 3 4 4 4 4 4 4 4 5 6 7
11 15 10 9 9 11 12 14 14 12 10 11 11 12 11 12 12 12 12 11 10 9 7 6 5 6 5 3 3 2 2 2 2 2 3 4 4 4 4 4 5 5 7 6
13 12 9 10 11 12 12 14 14 14 12 11 12 14 12 10 11 11 11 10 10 10 9 8 7 6 5 3 3 3 2 2 2 2 3 3 3 4 5 6 6 6 7 6
13 9 10 11 12 11 15 10 11 13 14 18 12 19 14 12 13 11 11 11 11 10 9 8 8 6 6 4 3 2 2 2 2 2 3 3 4 5 5 6 6 6 6 7
13 11 11 13 12 10 13 10 12 12 15 16 16 19 16 12 14 13 12 11 11 10 9 8 8 7 5 5 3 3 2 2 2 2 2 2 3 3 4 5 6 6 7 7
11 8 10 12 9 10 10 12 13 14 18 22 17 18 18 16 14 12 10 10 9 9 8 8 6 6 4 4 4 5 4 2 2 2 2 3 3 3 4 5 6 6 7 7
14 13 10 9 15 12 13 15 22 25 27 25 15 16 16 13 12 11 10 9 9 8 8 8 8 8 7 6 5 5 4 3 3 3 3 3 2 3 3 4 5 6 7 7
21 20 13 10 13 14 16 15 19 24 23 21 15 20 16 13 12 11 9 9 9 9 9 11 11 10 10 10 10 9 9 5 3 2 3 3 2 2 3 3 4 5 6 6
18 19 11 11 11 11 15 20 14 18 21 21 19 15 14 13 14 13 12 10 10 11 10 10 11 11 12 11 11 11 10 10 10 9 4 3 3 3 3 3 3 4 5 5
15 19 13 11 12 11 13 11 20 22 25 27 21 20 21 18 17 15 15 13 12 11 11 11 11 11 10 11 12 11 11 12 12 12 10 6 2 3 3 4 4 4 4 6
14 17 17 16 22 19 16 18 16 17 19 25 23 23 16 18 17 17 16 13 12 12 13 12 11 11 11 11 12 13 12 11 11 11 10 9 8 3 3 3 5 8 11 10
15 15 25 20 14 14 13 15 15 21 24 22 21 22 15 16 15 16 16 14 13 14 14 13 12 12 12 12 13 12 11 11 10 11 10 10 9 8 8 7 9 9 8 10
13 15 19 22 18 14 17 14 15 17 17 23 22 24 15 16 16 16 16 15 14 15 15 14 13 13 13 13 12 11 11 11 10 10 10 10 10 10 10 10 10 9 9 9
9 20 18 20 19 18 18 16 16 18 23 22 23 22 19 18 18 18 17 16 16 17 16 15 15 14 14 13 12 12 11 11 11 10 10 10 10 10 11 11 11 10 10 10
12 17 21 17 16 17 17 17 17 22 20 22 20 22 20 18 18 18 17 17 17 17 17 17 16 15 14 14 13 12 11 11 11 12 12 11 10 10 10 10 11 11 11 11
13 18 20 18 16 17 16 16 16 18 19 20 20 20 17 16 17 18 18 18 19 18 17 16 15 15 15 14 13 13 12 12 11 12 13 12 12 11 11 11 11 11 11 11
15 16 20 24 19 18 20 18 17 19 19 20 22 19 17 18 19 19 18 18 18 18 18 17 17 16 15 15 13 14 13 13 13 13 13 13 13 13 12 12 11 11 11 11
19 16 16 23 21 24 17 14 15 17 18 18 18 18 17 17 17 17 17 18 18 18 17 17 16 16 16 14 14 14 15 15 16 15 15 14 14 13 13 13 13 12 12 12
12 13 17 22 28 19 15 17 18 18 19 18 19 18 19 17 16 18 17 17 18 17 17 16 16 16 16 16 14 15 16 16 16 17 17 17 16 16 14 14 14 13 13 13
13 13 15 21 23 26 19 17 15 16 22 21 21 23 23 17 24 22 20 21 21 20 17 17 17 17 17 16 15 16 17 17 17 17 16 16 17 17 17 16 15 14 13 13
26 27 20 20 20 20 15 15 13 22 22 22 20 21 19 20 20 20 22 22 23 23 22 20 19 19 18 17 16 18 18 18 17 17 18 18 17 17 17 17 16 16 15 14
22 23 25 22 26 23 14 13 19 19 22 18 15 20 20 22 22 21 21 20 20 21 20 20 21 20 20 18 18 19 19 18 18 19 19 19 20 17 17 20 18 18 17 17
20 17 18 17 19 16 16 15 18 20 18 18 15 17 16 17 18 17 17 17 17 17 18 19 21 21 22 20 20 21 20 20 20 20 21 21 20 18 18 20 20 19 18 17
14 14 16 17 15 16 15 15 15 15 14 13 13 14 15 16 17 18 17 17 18 17 18 18 20 21 21 20 19 21 20 20 22 22 20 20 20 19 20 17 17 18 18 18
13 12 14 15 12 14 13 12 13 13 14 13 14 15 15 16 17 18 17 17 17 17 18 19 20 20 20 20 21 23 21 22 22 20 19 18 19 20 19 18 18 17 16 16
12 13 15 16 12 12 12 11 11 12 13 13 14 16 15 15 16 16 17 17 17 18 18 19 20 21 22 23 23 23 25 26 26 22 20 19 19 20 19 19 18 14 14 13